Theta_e
315 321 323 323 323 321 319 320 321 322 323 325 327 328 327 326 324 324 324 317 312 315 319 317 316 315 316 315 312 310 310 309 309 309 308 310 310 310 310 310 310 310 310 310 310 310 310 310 310 310 311 310 311 311 310 314 318 316 314 318 318 317 321 322 321 322 323 324 323 321 321 320 321 322 321 321 320 320 320 321 321 321 321 321 321 321
316 322 324 324 321 319 319 319 318 318 319 320 321 322 323 324 324 323 322 317 312 315 322 319 316 316 315 314 312 310 309 308 309 309 309 310 310 310 310 310 311 310 310 310 310 310 309 309 310 310 310 310 311 312 310 312 315 314 314 319 320 318 322 323 323 323 323 321 320 319 319 319 320 321 320 320 319 320 321 321 320 320 320 319 319 317
319 321 321 318 315 315 318 317 316 318 318 319 320 319 322 323 322 322 322 317 313 315 323 323 318 317 316 315 313 310 309 311 312 312 312 312 311 310 310 310 310 310 309 309 309 310 309 309 310 311 311 310 311 312 310 310 314 314 314 320 322 320 322 323 323 323 322 321 319 318 318 318 319 319 319 319 319 320 320 320 319 318 317 315 313 310
323 326 321 314 313 317 319 318 317 317 318 320 320 319 322 323 322 324 323 318 316 317 320 321 318 316 316 316 316 313 311 313 314 314 314 313 312 312 312 312 312 311 310 309 309 310 309 310 310 311 311 310 310 311 311 311 314 315 314 318 320 319 319 320 321 321 320 319 318 318 318 318 318 319 319 319 319 320 319 318 316 314 311 308 306 304
324 325 318 313 316 319 320 320 319 319 321 322 322 320 321 322 322 324 322 320 323 323 319 318 320 321 321 320 318 316 313 312 313 313 313 313 313 312 312 311 312 312 311 310 310 310 310 310 310 311 311 310 310 312 312 311 315 316 315 316 317 316 317 318 319 318 317 316 317 318 318 317 318 319 318 319 319 317 315 313 309 306 304 303 302 301
321 317 315 318 319 318 320 321 322 323 322 322 324 322 320 322 323 322 323 322 326 330 323 318 324 331 330 325 321 320 318 317 314 310 311 313 313 311 310 310 310 310 311 311 310 310 310 310 310 311 311 310 310 312 313 313 315 316 316 317 316 315 316 317 316 315 315 316 318 317 316 317 317 318 318 318 317 313 309 306 304 302 301 300 300 299
319 315 316 323 324 322 321 320 323 322 320 323 325 324 321 321 323 322 322 323 326 329 322 317 324 330 327 323 324 326 326 325 319 312 310 312 312 311 310 310 310 310 310 310 310 310 310 310 310 311 311 310 310 313 314 314 315 315 316 318 317 315 315 316 315 315 316 317 317 316 316 317 317 317 316 314 311 307 304 303 301 300 299 298 298 298
319 319 318 321 324 325 322 321 323 320 321 326 325 325 324 321 322 323 321 323 326 326 323 322 323 324 322 323 324 324 324 323 321 317 314 311 312 312 311 310 310 310 311 310 310 310 310 310 310 310 312 311 310 313 314 314 315 315 315 317 316 314 314 315 315 315 317 316 315 316 316 317 317 316 313 309 305 303 302 301 299 299 298 297 298 297
318 323 322 320 322 322 322 326 325 319 322 326 322 323 327 324 326 327 323 325 324 322 326 327 323 322 324 326 323 320 322 323 321 321 318 313 313 312 311 311 310 310 310 310 310 310 310 310 310 310 311 311 311 313 314 314 314 313 313 313 314 314 314 315 315 315 316 316 315 316 316 316 315 312 308 304 302 301 300 299 298 298 298 297 297 297
317 319 319 320 322 321 324 327 323 321 321 319 318 323 326 325 327 329 327 326 325 323 325 327 323 322 325 327 324 321 324 325 322 320 317 314 314 313 312 311 310 310 310 310 310 310 311 311 310 310 311 311 311 312 313 314 313 312 312 313 314 314 314 314 314 314 315 315 315 315 315 315 311 307 304 302 301 300 299 299 298 298 297 297 297 297
316 313 314 318 320 318 321 319 314 318 317 315 321 328 329 328 328 330 328 324 324 324 323 325 325 323 324 328 327 324 325 326 322 322 322 316 313 314 314 312 311 310 310 310 309 309 310 310 309 309 311 311 311 311 313 314 312 312 314 314 314 314 314 314 315 314 314 314 315 315 313 311 306 304 303 301 300 299 298 298 298 297 297 297 297 297
317 316 315 316 315 314 318 317 313 314 313 317 331 332 328 329 327 328 327 324 325 326 325 325 322 320 323 327 328 325 323 323 321 323 327 321 315 315 315 313 312 311 310 310 309 309 309 309 308 309 310 311 311 311 312 313 312 312 314 314 314 315 314 314 314 314 314 314 314 313 310 306 304 303 302 301 300 299 299 298 298 298 298 297 297 297
319 321 317 314 314 315 321 322 318 316 316 321 329 327 325 327 325 327 327 324 325 323 320 319 318 319 322 323 324 323 322 323 319 316 318 316 315 316 315 314 312 311 310 309 309 309 309 309 308 309 310 311 312 311 311 312 312 312 315 314 314 315 314 314 314 313 313 313 312 309 306 304 303 302 301 301 300 300 299 298 299 298 298 297 297 297
323 323 317 316 316 316 319 322 321 321 320 320 323 324 326 325 326 331 328 323 325 324 317 314 317 322 323 322 323 321 319 320 316 313 314 314 314 315 315 314 313 311 310 309 309 309 309 309 309 308 309 310 311 311 310 311 311 312 314 313 314 315 314 313 313 312 312 311 308 305 303 302 301 301 300 300 300 300 299 298 298 298 298 297 297 296
323 324 321 319 318 317 318 318 322 323 319 318 321 323 324 327 331 333 329 327 329 327 318 314 320 327 327 327 323 316 312 313 315 315 315 313 313 314 314 313 312 311 310 309 309 309 309 309 309 308 308 309 310 311 310 311 311 312 313 313 314 314 314 313 312 311 311 308 305 303 302 301 300 300 300 299 299 299 298 298 297 297 297 297 297 296
320 324 324 317 315 317 318 316 318 322 320 318 320 321 323 326 327 326 326 326 324 324 321 318 322 326 324 323 318 312 311 311 311 312 313 313 312 311 312 312 312 311 311 310 309 309 309 309 309 308 308 308 309 310 310 311 311 312 312 312 313 314 313 312 310 310 309 305 303 302 301 300 299 299 299 298 298 298 297 297 297 297 297 296 296 296
321 324 321 314 314 315 315 315 315 318 322 319 318 321 322 321 322 324 324 320 318 322 323 320 323 325 322 321 317 316 319 317 313 310 309 310 310 309 310 311 311 311 311 311 310 309 308 308 308 308 308 308 309 309 310 311 311 311 311 312 313 313 312 310 308 308 306 303 302 301 300 299 299 298 298 298 298 297 297 297 297 297 296 296 296 296
323 326 319 315 319 314 310 314 314 312 317 321 321 321 318 318 323 326 325 324 324 325 324 321 323 324 323 323 321 319 319 320 320 316 309 307 307 308 310 310 311 311 311 310 310 309 308 308 308 308 307 307 308 309 309 310 311 311 311 312 313 313 311 309 307 307 304 302 301 300 299 298 298 298 298 297 297 297 297 297 297 296 296 296 296 295
322 324 320 315 318 315 311 316 318 313 313 318 321 319 319 325 326 323 324 327 327 327 326 324 322 321 321 322 323 321 321 322 321 319 315 310 307 307 309 310 310 310 310 310 310 309 308 308 307 307 307 307 308 309 309 310 311 311 312 313 313 313 311 308 306 305 303 302 301 300 299 298 298 297 297 297 297 297 297 297 297 297 296 296 296 295
322 323 323 315 313 314 314 317 321 319 313 314 316 315 319 325 324 323 323 325 327 327 327 326 323 322 321 322 324 322 324 327 322 319 320 314 308 308 309 310 310 310 310 310 310 310 308 308 307 307 307 307 307 308 309 310 311 312 312 313 313 313 311 308 305 304 302 301 300 299 298 297 297 297 297 296 296 297 297 297 297 297 296 296 296 295
321 321 323 317 312 315 318 319 319 319 316 316 318 318 318 319 319 322 322 322 326 327 328 327 323 323 324 322 322 321 323 324 322 321 320 312 310 312 310 310 311 311 311 311 310 310 309 308 307 306 306 306 307 308 308 309 311 312 312 313 313 312 311 307 304 303 302 301 300 299 298 297 297 297 296 296 296 296 297 297 297 296 296 296 295 295
321 323 325 320 316 317 321 319 316 316 317 317 318 318 318 318 319 323 322 320 322 323 328 328 323 324 326 321 319 321 322 319 316 317 316 311 313 315 312 312 312 311 311 311 310 310 309 308 307 306 306 306 306 307 308 309 311 312 313 313 313 312 310 306 303 302 301 300 299 299 298 297 297 296 296 296 296 296 296 296 296 296 296 296 295 295
320 324 326 323 319 318 319 315 310 313 317 316 317 320 319 318 320 324 323 322 321 321 323 324 322 323 321 320 321 318 316 314 311 311 311 312 315 315 313 313 312 311 311 310 310 310 309 308 307 306 306 306 305 306 308 309 310 312 313 312 312 312 310 306 303 301 301 300 299 298 298 297 297 296 296 296 296 296 296 296 296 296 296 296 295 295
319 323 324 322 319 318 319 317 312 313 315 316 318 321 319 317 318 322 323 322 323 324 322 322 324 321 316 319 317 309 308 310 310 311 311 312 314 314 312 312 312 310 309 308 309 309 308 308 307 306 306 306 305 306 307 309 309 310 312 312 312 312 309 306 303 301 300 299 299 298 298 297 297 296 296 296 296 296 296 296 296 296 296 295 295 295
319 323 324 324 323 322 322 322 318 315 315 317 320 319 317 317 318 320 321 320 322 324 322 322 324 320 318 320 314 309 312 312 309 311 312 311 314 315 312 311 311 309 308 308 308 308 308 307 306 306 306 306 306 306 307 309 309 310 311 312 312 311 308 305 303 301 300 299 298 298 297 297 296 296 296 296 296 296 296 296 296 295 295 295 295 294
320 323 322 323 324 324 324 323 321 318 315 317 321 318 316 317 318 319 320 320 321 322 321 322 322 320 320 320 317 317 320 317 312 312 311 312 314 314 313 312 312 311 309 308 308 307 308 308 307 307 307 306 306 305 306 308 310 310 311 312 312 310 307 305 303 301 300 299 298 298 297 297 296 296 296 296 296 296 295 295 295 295 295 295 295 294
324 323 320 321 323 323 323 324 323 320 317 318 320 318 316 317 317 318 320 320 322 322 321 320 320 320 320 320 321 322 322 324 320 312 310 314 315 314 314 312 311 311 309 308 308 307 307 308 308 308 307 307 306 305 306 308 309 310 311 312 312 309 307 304 302 301 300 299 298 298 297 297 296 296 296 296 296 295 295 295 295 295 295 295 294 294
326 323 319 321 322 321 322 323 320 320 319 319 319 318 317 316 316 318 319 320 322 323 322 320 320 321 320 319 320 321 322 327 321 310 310 315 316 315 314 312 311 310 308 307 308 307 308 309 308 308 307 307 307 306 305 306 308 310 311 311 311 308 306 304 302 301 300 299 298 298 297 297 296 295 295 295 295 295 295 295 295 294 294 294 294 293
322 323 320 321 321 320 321 321 318 319 319 318 319 318 317 317 316 317 318 318 320 321 321 320 321 322 320 318 319 319 318 320 318 314 314 315 315 315 314 312 312 311 308 308 308 309 309 309 309 308 307 307 307 306 305 306 308 309 310 311 309 307 305 303 302 301 300 299 298 298 297 296 295 295 295 295 295 294 294 294 294 294 294 293 293 293
317 322 321 320 320 320 321 320 319 319 318 317 318 318 317 317 316 316 317 317 318 319 319 319 321 320 319 318 320 318 316 316 315 314 314 314 315 315 314 313 313 311 309 309 310 310 310 309 309 308 306 306 306 306 306 306 307 308 309 309 308 306 304 303 302 301 300 299 298 298 297 296 295 295 295 294 294 294 294 294 293 293 293 293 293 292
314 320 320 319 320 320 320 320 319 319 319 319 319 317 316 316 315 315 316 316 316 317 318 318 319 319 317 317 318 316 314 314 314 313 313 314 315 314 313 313 313 312 311 311 311 310 309 308 308 307 306 306 306 306 306 305 306 307 307 308 307 305 304 303 302 301 300 299 298 297 297 296 295 295 294 294 294 293 293 293 293 293 292 292 292 292
314 318 318 318 321 320 319 319 318 317 317 318 319 318 317 316 315 315 315 316 316 317 317 317 318 318 317 316 316 315 313 313 312 312 312 313 314 314 313 314 314 313 313 312 312 311 310 309 308 308 308 306 305 305 305 304 304 305 306 307 306 305 304 303 302 301 300 299 298 297 297 296 295 295 294 294 293 293 293 293 292 292 292 292 292 292
315 317 317 317 320 320 319 319 318 317 318 319 319 319 317 316 316 315 315 315 315 316 317 318 317 317 317 317 317 317 317 314 312 312 313 313 314 314 313 314 315 315 315 315 314 312 310 309 308 308 307 305 304 305 304 303 303 304 305 305 304 304 303 302 302 301 300 299 298 297 297 296 295 295 294 293 293 293 292 292 292 292 291 291 291 291
314 316 315 315 319 320 318 318 318 318 321 322 321 320 319 317 316 316 315 315 314 314 315 317 317 317 317 318 318 317 317 315 313 314 315 315 314 314 314 314 315 316 316 316 314 311 309 308 307 307 306 305 304 304 303 302 302 303 303 302 302 302 302 301 301 300 300 299 298 297 297 296 295 294 293 293 292 292 292 292 292 291 291 291 291 291
314 315 314 314 317 318 317 317 319 321 321 321 319 318 318 318 317 317 316 315 314 314 315 315 316 316 315 315 315 314 313 314 314 315 315 315 314 314 315 315 316 316 315 314 311 309 308 308 307 307 306 305 303 302 302 302 301 301 301 300 300 300 300 300 299 299 299 298 298 297 296 296 295 294 293 292 292 292 292 291 291 291 290 290 290 290
314 314 314 314 315 316 316 318 321 321 319 319 317 313 314 318 319 317 317 317 315 314 315 314 314 314 314 313 313 313 312 312 313 313 313 314 314 314 314 314 314 314 313 311 310 309 309 308 308 307 306 305 303 303 303 302 302 301 300 300 299 299 299 299 298 298 298 298 298 297 297 296 295 294 293 292 292 292 291 291 291 290 290 290 290 290
315 315 314 315 315 316 317 319 319 319 318 320 319 315 314 318 320 320 320 319 316 315 315 314 314 314 313 312 312 312 310 310 311 312 311 312 313 313 313 312 311 311 310 310 309 309 308 307 307 306 305 304 304 303 303 302 302 301 300 299 299 298 298 298 298 299 299 299 298 297 297 296 295 294 293 292 292 291 291 291 291 290 290 290 290 289
315 315 314 316 315 315 317 319 318 319 319 319 319 316 311 311 315 317 318 318 318 316 314 314 316 315 314 313 311 309 309 311 313 313 311 311 312 312 311 311 310 310 309 309 309 308 308 307 306 306 305 304 304 304 303 302 302 301 300 300 300 300 299 300 301 301 301 299 298 297 296 296 295 294 293 292 292 291 291 291 291 290 290 290 289 289
312 313 313 315 315 314 316 318 319 320 319 318 317 312 307 307 310 313 316 318 316 310 307 311 315 314 313 311 309 308 310 314 315 313 311 311 311 310 310 310 310 310 310 309 309 309 309 308 307 306 306 305 305 305 304 304 303 302 302 302 302 302 302 303 304 303 301 299 297 296 296 295 295 294 293 292 292 292 291 291 290 290 290 289 289 289
311 312 312 313 315 315 316 317 318 318 318 317 314 307 304 307 311 314 319 319 312 304 302 306 309 309 309 308 307 309 312 314 314 312 310 310 309 309 310 311 311 311 310 310 310 309 309 308 307 307 307 306 306 306 306 305 305 305 305 305 304 304 305 305 303 301 299 298 297 296 296 295 295 294 293 293 292 292 291 291 290 290 289 289 289 289
310 311 312 313 315 315 315 317 317 317 318 317 311 305 304 308 313 317 320 315 307 303 304 305 306 307 307 306 307 309 310 309 310 311 309 308 309 309 310 310 310 310 310 309 309 308 308 308 307 307 307 307 307 306 306 306 305 305 305 304 304 304 303 302 300 299 298 297 296 296 295 295 294 294 293 293 292 292 291 291 290 290 289 289 289 288
311 311 311 313 314 314 315 316 316 317 316 312 306 303 304 312 317 316 312 307 304 304 305 305 306 307 307 306 305 307 307 307 309 309 308 308 309 309 310 310 310 309 309 308 308 308 307 308 307 307 307 307 306 306 305 305 304 303 303 302 302 301 300 299 298 297 297 296 296 295 295 295 294 294 293 293 292 292 291 291 290 290 289 289 288 288
312 312 312 312 313 314 314 314 317 318 312 306 305 305 307 314 316 310 304 302 303 304 305 305 306 306 306 306 305 306 306 307 309 309 308 308 308 309 309 309 309 309 308 307 307 306 305 305 305 305 304 304 303 303 302 302 301 301 300 300 299 298 298 297 297 296 296 296 295 295 295 294 294 293 293 292 292 292 291 291 290 290 289 289 289 288
312 313 313 313 313 314 315 315 316 314 308 304 307 309 309 310 310 306 303 303 302 303 303 305 305 305 305 306 306 305 306 307 307 308 308 308 307 307 307 307 306 306 305 304 304 303 302 302 301 301 300 300 299 299 299 299 299 299 298 297 297 296 296 296 296 295 295 295 295 295 295 294 294 293 293 293 292 291 291 291 290 290 290 289 289 288
313 311 311 314 314 312 313 313 309 305 302 302 304 305 305 306 306 305 305 305 303 302 302 303 305 306 305 305 305 304 304 304 305 305 305 305 305 305 304 304 303 303 302 301 301 300 299 299 298 298 298 297 297 297 297 297 296 296 295 295 294 294 294 294 294 294 294 294 294 294 294 294 294 293 293 293 292 292 291 291 291 290 290 289 289 289
307 304 306 312 313 310 308 306 303 300 300 301 302 302 302 304 305 305 305 304 302 301 300 301 304 305 305 305 304 304 303 302 301 301 301 301 302 302 301 301 300 300 299 299 298 298 297 297 297 296 296 296 296 296 296 295 294 293 293 293 293 292 292 292 292 292 292 292 292 292 292 292 292 293 293 293 292 292 292 292 291 291 291 290 290 290
304 302 305 310 312 312 310 306 302 301 300 300 302 302 301 302 303 303 303 303 301 300 300 300 301 302 304 304 304 303 302 301 300 300 299 298 299 299 299 299 298 298 297 297 297 296 296 295 295 295 295 295 295 294 294 293 293 292 292 292 292 292 292 291 291 291 291 291 291 291 291 291 291 291 291 291 292 292 292 292 292 292 291 291 291 291
306 304 307 310 310 309 308 302 298 298 299 299 301 302 301 301 301 301 301 301 300 300 300 299 299 300 301 301 302 302 302 301 300 300 298 297 297 297 297 297 296 296 296 295 295 295 294 294 294 294 293 293 293 293 293 293 292 292 292 292 292 291 291 291 291 291 291 291 291 291 291 291 290 290 291 290 291 291 291 291 291 291 291 291 291 291
306 305 307 309 307 305 304 301 297 299 302 301 301 302 301 300 299 299 299 300 300 300 300 299 298 298 298 298 299 300 300 300 299 298 297 296 296 295 295 295 295 295 295 294 294 294 293 293 293 293 293 293 292 292 292 292 292 292 292 292 292 292 291 291 291 291 291 291 291 291 291 291 291 291 290 290 291 290 290 290 290 290 290 290 290 290
305 307 307 306 306 306 306 303 301 305 308 305 303 304 302 299 299 300 300 300 300 300 299 299 298 297 297 297 297 297 298 298 297 296 295 295 295 295 294 294 294 294 294 294 293 293 293 293 293 293 293 292 292 292 292 292 292 292 292 291 291 291 291 291 291 291 291 291 291 291 291 291 291 291 291 290 290 290 290 290 290 290 290 290 289 289
304 306 305 305 307 307 305 302 302 306 309 307 306 307 304 301 301 301 301 300 300 299 299 299 298 297 297 297 296 296 297 297 296 295 295 294 294 294 294 294 294 294 293 293 293 293 293 293 293 292 292 292 292 292 292 292 292 291 291 291 291 291 291 291 291 291 291 291 291 291 291 291 291 291 291 291 290 290 290 290 290 290 290 289 289 289
Wind_Speed
6 3 2 5 7 8 8 9 8 5 5 4 4 3 3 4 5 5 4 6 6 5 5 9 9 11 12 11 13 15 18 21 25 24 24 26 28 32 34 34 35 35 33 29 26 24 22 22 21 20 19 19 18 17 17 20 21 20 20 21 21 22 23 22 22 23 23 22 21 20 20 18 18 18 17 17 17 16 16 16 15 14 14 14 13 12
5 4 7 10 10 9 7 8 6 3 2 1 2 2 4 4 5 6 4 4 2 4 6 6 7 11 12 12 14 11 11 18 27 27 29 31 32 34 35 36 36 35 33 30 29 26 24 24 23 22 21 20 19 19 19 21 24 22 20 22 23 22 23 23 24 25 23 21 20 20 20 19 20 20 19 19 19 17 17 16 15 14 13 12 12 11
2 4 11 12 7 5 3 4 5 5 5 3 2 2 4 3 4 6 4 3 1 3 5 4 4 10 12 11 12 14 15 21 30 32 34 36 34 35 36 37 37 36 35 33 32 30 26 26 25 24 22 21 20 19 19 21 23 22 22 24 24 24 25 25 25 24 22 22 20 18 19 21 21 21 21 20 19 18 17 16 15 13 12 12 12 12
3 6 13 12 8 6 3 4 5 3 4 4 3 2 4 4 2 4 5 3 1 2 3 4 5 8 10 8 10 19 23 24 29 31 34 36 35 37 38 39 39 40 39 37 36 33 29 28 27 26 24 22 21 21 20 22 23 23 23 26 27 26 26 26 26 25 24 23 20 18 20 20 21 22 22 20 20 19 17 16 15 14 14 15 15 16
6 6 4 7 10 8 6 5 6 4 3 5 6 6 6 5 6 6 4 3 3 4 2 3 6 7 8 9 10 13 13 18 25 25 29 34 37 37 36 37 40 41 41 40 39 36 32 31 29 27 26 23 23 24 23 23 25 25 23 25 26 25 25 26 26 26 24 22 22 23 22 22 23 24 23 21 21 19 17 17 17 18 19 18 18 17
8 7 3 7 6 7 7 5 6 7 4 5 6 9 10 8 8 5 2 4 4 5 3 2 4 7 5 7 10 6 2 9 16 17 24 33 34 35 35 36 39 40 40 40 39 37 34 32 30 28 26 25 25 25 24 23 24 24 23 24 24 24 25 25 25 23 21 22 25 25 24 26 27 26 24 22 20 20 20 21 22 22 21 19 18 17
5 8 5 6 6 7 6 5 5 7 5 4 6 9 10 7 5 4 1 2 1 4 4 2 2 7 6 5 8 6 5 10 11 11 20 29 30 33 37 37 38 39 41 40 38 36 34 33 31 30 28 27 27 27 26 25 24 24 24 25 24 24 24 24 23 21 21 23 24 22 23 25 26 26 25 22 21 23 24 24 24 23 22 19 17 16
4 7 6 6 6 6 5 5 6 8 7 4 5 6 7 6 5 5 4 4 3 3 4 2 2 5 8 6 6 6 8 12 12 11 16 25 29 32 35 36 37 39 41 42 41 38 36 34 32 31 30 29 28 29 29 28 27 26 27 28 26 24 24 24 22 22 23 23 22 22 24 24 23 24 25 26 26 27 26 25 24 23 21 19 16 15
4 7 8 8 6 5 6 5 7 10 5 6 4 7 6 6 5 3 5 3 1 2 4 5 1 3 8 6 2 1 6 10 13 13 15 21 28 30 32 34 36 39 40 42 42 40 37 35 32 31 31 30 30 31 31 31 30 28 28 28 27 25 25 25 24 24 25 23 22 23 24 25 25 25 27 30 29 28 26 25 24 22 21 19 16 14
1 4 8 8 6 6 6 3 7 11 5 4 6 7 6 5 5 4 5 3 2 1 6 7 3 4 7 4 1 1 3 9 11 12 12 17 22 25 29 33 35 37 39 40 41 39 37 35 32 31 31 32 32 33 33 32 30 29 28 28 27 27 26 26 25 25 26 24 23 23 24 26 28 30 31 31 30 28 26 24 23 22 19 18 15 14
2 0 3 4 4 5 5 3 2 6 7 8 7 6 6 6 5 4 3 4 1 4 7 9 9 7 6 3 4 3 4 7 7 8 9 11 14 19 24 30 34 36 38 39 40 39 37 34 32 33 33 34 34 34 35 34 31 30 30 29 29 29 27 27 27 26 26 25 24 23 24 27 31 33 33 32 31 29 26 24 22 20 18 16 15 13
5 1 1 2 4 6 7 5 3 2 6 8 5 5 4 4 4 4 4 3 1 6 6 7 8 8 7 6 3 5 6 5 6 7 8 9 12 16 20 25 31 35 37 38 39 39 38 36 35 35 36 36 36 36 37 36 33 32 32 31 31 31 29 29 29 28 27 26 24 24 25 28 31 32 31 30 29 27 25 23 21 20 18 16 15 13
3 3 3 2 3 6 6 4 3 4 3 5 5 6 4 2 2 2 3 0 4 7 4 3 1 4 9 8 7 9 11 10 10 11 11 12 14 16 17 21 27 32 36 37 39 40 39 38 38 38 38 39 38 38 38 37 36 35 34 33 33 32 31 31 30 29 28 27 26 26 28 31 31 29 28 27 25 24 23 21 19 18 16 15 14 12
3 5 2 0 3 8 9 6 3 1 3 6 6 6 5 2 1 3 4 2 4 5 4 2 2 3 6 6 11 15 16 18 19 20 20 17 17 17 16 18 23 29 34 37 38 40 40 40 39 38 39 40 40 39 38 38 37 36 36 35 34 33 33 32 31 29 29 28 28 29 31 31 30 28 26 25 23 22 21 19 17 16 15 14 12 11
5 6 4 6 4 9 12 8 6 5 5 5 4 6 6 5 4 4 4 4 4 3 4 2 2 4 3 3 8 11 13 17 21 25 26 24 22 20 18 18 23 29 33 36 38 39 40 40 39 38 39 41 41 41 40 39 38 38 38 37 35 34 34 32 31 31 31 31 30 31 32 31 28 26 25 24 22 21 20 19 17 16 15 13 12 11
5 6 6 4 3 11 11 6 6 8 2 3 3 5 3 5 5 3 3 4 3 2 3 2 3 5 5 5 7 7 9 11 15 20 23 23 20 17 17 21 25 29 32 35 38 39 40 39 39 39 40 41 42 42 42 41 39 39 39 38 36 35 33 32 32 32 33 33 33 34 33 31 29 27 26 25 23 21 20 19 18 17 15 14 12 11
3 5 4 2 2 5 6 5 5 4 3 1 3 4 4 4 5 2 3 1 2 3 4 3 5 5 3 7 9 8 9 9 10 14 17 18 15 14 19 23 26 29 32 35 37 39 39 39 39 39 39 42 44 44 43 42 40 40 40 39 37 35 34 33 34 34 35 36 36 35 34 32 30 28 27 26 25 23 22 20 18 17 16 15 13 12
5 2 4 2 2 3 1 4 3 3 5 5 4 6 2 2 2 2 2 3 3 4 4 3 7 6 2 6 4 1 7 10 10 12 13 13 13 18 23 24 26 29 31 33 35 37 39 40 40 40 40 42 43 43 43 42 41 41 41 40 38 37 36 36 35 36 37 38 38 37 36 33 31 29 27 26 25 24 23 22 20 18 17 16 14 13
4 2 4 1 2 2 2 4 3 4 3 4 4 5 4 2 2 2 2 2 1 4 5 3 6 6 5 5 2 2 9 11 12 12 10 10 16 23 26 25 25 28 30 33 35 37 39 40 40 40 40 41 42 42 42 42 42 42 42 41 39 38 37 36 37 38 39 40 39 38 36 34 32 30 29 28 26 25 23 22 21 19 18 17 15 14
3 3 3 1 0 1 2 2 4 1 2 3 2 2 2 2 3 3 3 3 3 3 4 3 3 4 6 7 7 9 12 12 13 11 8 13 23 28 28 26 27 29 31 34 35 37 38 39 40 39 39 40 41 42 43 43 44 44 44 43 41 39 37 37 39 40 41 41 40 39 36 35 33 31 30 29 27 25 24 22 21 20 19 17 16 15
2 3 3 2 2 1 2 4 8 10 7 4 4 4 2 1 2 1 1 2 4 3 3 4 6 5 4 5 8 11 12 11 11 10 9 17 27 30 29 28 29 30 31 33 34 35 37 38 38 38 38 38 39 41 43 45 45 45 45 45 43 41 40 40 41 42 42 42 41 40 38 36 35 33 32 30 28 26 25 23 22 21 20 18 17 16
3 3 4 2 1 4 5 4 6 9 8 7 7 9 9 6 4 2 3 1 2 3 4 3 8 8 4 4 6 8 9 10 12 12 12 19 27 29 28 29 29 30 31 32 33 34 35 37 37 38 38 38 40 42 45 46 47 47 47 47 44 43 42 43 44 44 43 43 42 40 38 37 36 35 33 31 30 28 27 25 24 23 21 20 19 17
5 3 4 3 4 5 6 5 3 4 3 3 3 5 7 6 6 5 5 4 2 2 2 2 6 9 3 4 5 6 6 8 11 12 13 21 26 25 25 27 27 29 30 31 32 32 34 35 36 37 38 39 41 43 46 48 49 50 50 48 46 45 44 44 45 46 44 43 43 41 39 38 37 36 35 33 32 31 29 27 26 24 23 21 20 19
5 3 3 1 2 3 4 4 2 2 1 2 2 3 6 7 7 5 4 3 3 4 3 2 6 7 2 1 2 5 7 8 11 12 14 22 25 22 23 24 24 27 28 29 31 32 33 34 35 37 39 40 42 44 47 49 50 51 51 50 48 46 46 46 46 46 45 44 43 42 40 39 38 37 36 35 34 32 31 29 27 26 24 23 22 21
6 3 3 2 1 2 3 3 2 1 2 3 3 5 7 9 7 3 1 2 2 8 8 4 10 9 2 4 4 4 5 7 11 13 13 19 24 24 22 21 22 25 27 28 30 32 34 35 36 37 39 41 43 45 48 50 51 52 53 52 49 47 47 47 48 48 46 45 45 43 42 41 40 39 38 37 36 34 32 31 29 27 26 25 24 23
9 4 6 6 7 8 7 7 6 3 3 2 4 7 10 11 11 7 2 4 7 7 8 7 13 10 2 4 5 5 4 4 9 12 12 17 23 24 22 21 22 25 26 28 30 32 34 35 36 37 39 41 43 46 49 51 52 53 53 52 50 49 49 49 49 49 48 47 46 45 43 43 42 41 40 38 37 35 34 32 30 29 28 27 26 26
5 3 11 13 13 14 13 9 5 8 8 8 10 13 13 14 14 9 5 8 7 1 4 13 16 14 10 6 5 6 3 5 8 9 12 18 21 22 22 22 23 24 25 27 29 32 34 35 37 38 39 41 44 46 49 51 53 54 54 53 50 50 50 50 50 50 49 48 47 45 44 44 43 42 40 39 37 36 35 33 32 30 29 29 28 27
3 4 14 18 18 20 18 10 9 13 15 16 16 14 15 15 14 12 13 13 7 4 10 17 11 12 19 14 11 10 6 5 7 11 17 20 20 21 22 22 22 23 25 26 29 32 34 36 38 39 39 41 43 46 49 51 53 53 54 53 51 51 51 51 51 50 50 49 48 46 45 44 43 42 40 39 38 37 36 34 33 32 31 30 30 28
2 6 12 15 18 21 18 9 10 12 11 12 15 16 16 17 17 18 21 18 9 7 17 18 8 12 22 18 13 11 9 12 17 19 21 21 20 22 21 22 25 25 27 29 31 33 34 36 38 39 41 42 44 47 49 51 53 53 53 53 52 52 52 51 51 51 50 50 49 47 45 45 44 42 41 40 39 38 38 36 35 34 33 32 31 29
1 3 3 7 12 17 17 9 9 9 5 4 10 13 14 18 21 22 21 19 14 15 21 21 14 18 19 12 10 13 17 23 24 20 21 22 24 26 24 25 27 28 30 31 32 33 34 36 38 39 41 42 44 47 49 52 54 54 54 54 53 53 52 52 51 50 50 50 49 47 46 45 44 42 42 41 41 40 39 38 37 36 35 34 32 30
2 2 2 3 5 12 15 9 6 8 6 6 8 11 15 19 18 17 15 15 14 16 21 21 19 20 12 5 10 16 17 18 17 18 23 26 28 28 26 28 30 31 32 33 33 33 34 36 37 39 41 43 44 47 49 52 54 54 54 54 53 53 52 51 51 50 50 50 48 47 46 45 44 43 43 43 42 41 40 39 39 38 37 35 33 32
4 3 2 4 3 8 11 9 5 6 5 7 12 17 21 17 11 11 13 14 15 16 19 17 16 18 11 5 8 11 11 13 16 20 24 26 28 28 28 31 33 32 32 33 33 34 36 37 38 39 42 44 44 46 49 51 53 53 53 54 53 53 52 51 51 50 50 49 48 47 46 45 45 44 44 44 43 42 42 41 41 39 38 37 35 34
6 4 1 3 4 7 5 4 5 4 3 7 15 21 21 15 11 12 13 15 17 15 14 13 14 19 14 7 7 8 8 12 17 22 26 27 28 29 30 32 32 31 31 33 35 37 38 38 37 39 41 42 42 44 47 49 50 51 52 52 52 52 51 51 51 50 50 49 48 48 47 46 46 46 46 45 44 43 43 42 42 41 40 39 37 35
6 7 4 4 3 5 3 6 5 4 8 10 8 9 12 15 17 17 15 17 18 15 14 15 16 19 14 8 10 12 12 16 22 29 31 29 27 27 29 30 30 31 33 35 36 37 35 34 35 36 37 37 38 40 42 44 46 47 48 49 49 50 50 50 50 49 49 48 48 48 48 47 47 47 47 46 44 44 44 44 44 43 41 40 38 37
7 8 5 3 2 3 3 6 4 7 9 6 3 2 5 11 16 18 17 19 19 17 18 19 20 20 17 14 17 18 19 23 27 30 29 27 26 27 29 31 31 33 35 36 34 32 30 30 31 31 32 33 34 35 37 39 41 43 45 46 46 47 47 47 48 47 47 47 48 49 49 48 48 48 47 46 46 46 46 46 45 44 42 41 40 39
9 7 3 3 3 2 3 5 8 5 4 6 4 2 1 4 7 9 13 17 18 18 18 20 23 23 19 21 27 26 23 21 21 24 26 24 25 28 29 31 31 31 31 28 24 21 20 21 23 24 25 27 28 29 30 32 36 39 41 42 43 43 43 43 44 44 45 46 47 48 49 49 49 48 48 47 47 47 47 47 46 45 44 43 41 40
9 6 3 4 4 3 4 7 5 4 9 12 7 4 5 6 8 9 9 14 15 16 16 17 20 21 19 25 32 27 17 13 13 18 23 23 24 25 26 26 24 20 16 12 10 10 10 13 15 16 19 20 21 22 23 25 29 33 35 37 37 37 38 39 39 40 41 44 46 48 49 49 50 49 48 48 48 48 48 47 46 46 45 44 43 41
8 7 6 6 4 3 5 5 2 3 9 11 5 5 8 8 8 9 6 10 9 11 16 16 17 18 17 21 24 15 6 6 9 13 18 20 20 20 18 16 13 9 8 8 8 8 8 9 10 11 13 14 14 15 16 19 22 24 27 28 29 30 32 32 33 34 38 42 45 47 48 49 49 48 48 48 48 48 48 47 47 47 46 46 44 43
4 5 6 6 4 4 5 5 4 6 8 5 3 4 5 8 10 9 1 8 5 6 12 14 14 16 15 14 12 6 4 6 10 10 11 14 15 14 13 12 13 13 12 12 11 10 10 10 10 10 10 10 10 11 12 13 15 17 19 20 21 24 26 26 28 32 36 38 40 41 42 43 45 46 47 47 47 47 47 47 47 47 47 46 45 44
3 3 4 6 7 7 7 6 4 5 5 4 5 4 5 12 14 9 1 8 5 3 6 8 10 12 13 12 9 8 6 9 9 6 6 11 14 15 14 13 14 15 14 14 13 12 13 13 12 11 11 11 11 11 12 12 13 14 15 16 19 22 23 23 25 28 29 30 32 33 35 37 39 40 42 43 43 43 44 45 46 47 47 47 47 45
2 2 4 7 8 9 10 7 4 4 5 5 7 10 12 12 9 5 6 6 5 5 4 5 6 8 9 12 13 9 9 10 8 5 10 16 16 16 14 13 14 15 14 14 14 14 15 15 14 13 12 12 11 10 11 11 13 14 16 18 21 21 20 19 20 21 22 24 25 27 28 29 31 33 34 36 37 38 40 42 43 45 46 46 47 47
3 2 3 6 7 7 7 6 4 5 4 6 10 13 14 9 4 7 5 5 8 7 3 2 3 3 5 11 13 8 6 6 6 10 16 16 13 14 14 14 15 14 14 15 15 15 15 14 12 12 11 11 11 12 13 14 16 17 18 19 17 14 13 13 15 16 18 19 20 21 22 23 25 27 28 30 32 34 36 37 39 41 42 44 45 46
5 4 3 5 5 3 3 5 5 5 4 16 17 8 5 5 4 6 8 7 6 7 4 3 2 2 6 11 11 8 8 10 11 13 15 13 11 13 14 13 13 13 13 14 13 13 12 11 10 11 11 12 13 14 14 14 14 14 14 11 7 6 8 10 11 12 13 14 15 16 17 19 21 22 24 26 28 30 31 33 35 36 38 40 42 43
5 5 4 4 5 4 4 7 5 3 8 22 16 4 7 10 7 9 10 7 6 7 6 4 4 5 9 11 12 12 12 13 14 14 14 14 13 13 13 13 13 13 12 12 11 11 11 9 10 11 11 11 11 11 11 10 9 9 8 6 5 6 8 8 8 10 10 11 13 14 15 16 18 19 21 23 25 27 28 30 32 33 35 37 38 40
5 5 4 3 4 3 3 5 2 1 9 17 7 1 9 15 10 8 8 7 9 9 7 6 7 9 10 11 12 14 13 13 14 14 14 15 14 14 14 14 14 13 13 12 12 12 12 10 10 11 11 11 11 10 10 9 8 7 8 7 7 7 7 7 8 8 9 10 11 11 12 14 15 17 18 20 22 24 25 27 29 31 32 34 36 37
2 2 4 2 2 1 1 2 2 0 6 12 6 2 9 14 11 8 7 8 11 10 9 9 9 10 11 11 12 13 13 13 14 13 13 14 14 15 15 14 14 13 13 13 13 13 13 12 11 10 10 11 11 10 9 9 8 8 7 6 5 5 5 6 7 8 8 9 10 10 11 12 14 15 16 17 19 21 22 24 26 28 29 31 33 34
1 3 4 2 3 3 2 3 4 2 6 9 7 6 9 11 10 9 8 10 12 11 10 10 10 11 11 10 10 12 13 13 13 12 12 13 13 14 14 14 15 14 13 13 13 13 12 12 11 10 10 9 9 8 8 7 6 5 4 4 4 5 6 6 7 7 8 8 8 9 10 10 11 12 13 15 16 18 20 22 24 26 28 29 31 32
4 7 5 2 4 4 3 3 3 3 6 10 9 8 10 10 10 10 10 11 12 10 10 10 10 11 12 10 10 12 13 12 12 12 13 13 13 14 14 14 15 15 14 14 13 12 12 11 10 10 9 8 7 6 6 5 4 3 3 3 4 5 5 6 7 7 8 8 9 10 11 11 12 12 13 15 16 17 19 20 22 24 25 26 27 29
7 8 5 2 3 1 2 4 3 2 5 11 14 14 13 12 12 13 12 11 11 9 9 9 9 9 10 11 11 11 12 13 11 12 13 14 15 15 16 15 15 15 14 14 13 12 11 10 9 8 7 6 6 5 5 5 4 4 5 5 5 6 6 7 8 8 9 10 11 12 12 13 15 16 17 18 19 20 21 22 23 24 25 25 27 28
7 6 4 3 4 4 4 7 10 5 2 11 20 21 18 15 14 14 13 12 11 9 8 8 9 9 9 10 10 11 12 13 13 14 15 16 16 16 16 16 15 14 14 13 13 12 11 10 9 8 6 6 6 6 6 7 7 7 8 8 9 9 10 10 11 11 12 13 13 13 14 15 16 17 19 20 22 23 23 24 25 26 26 27 28 29
7 8 8 7 5 6 7 15 20 10 1 8 20 24 21 19 17 16 15 13 11 10 8 7 7 8 8 9 10 11 12 14 16 17 17 17 16 16 15 14 13 13 12 12 12 11 11 10 9 9 8 8 8 8 9 10 10 11 12 12 12 13 14 14 15 15 15 16 16 16 17 18 19 20 21 22 23 24 25 25 26 26 27 28 28 29
Wind_Direction
139 124 169 203 211 206 200 196 202 185 142 139 144 151 197 216 268 256 265 264 181 164 245 223 227 248 252 258 257 239 217 220 233 237 237 234 231 229 227 229 229 228 228 226 226 225 220 222 224 226 226 223 221 216 205 193 193 197 190 185 187 187 189 193 194 190 188 192 196 198 199 199 196 195 195 188 184 182 178 177 171 168 169 172 176 177
132 166 223 221 211 201 198 202 210 197 161 181 168 242 259 218 255 256 247 283 185 173 262 247 238 257 255 256 265 246 205 222 231 231 236 235 232 231 229 229 229 228 227 224 225 222 216 219 220 221 222 219 217 215 208 197 198 200 189 187 191 187 186 192 194 192 194 201 208 211 207 200 192 188 188 185 180 178 176 173 171 173 176 182 186 184
139 217 240 229 198 170 189 183 189 220 233 246 221 254 273 241 269 279 274 305 126 179 264 280 255 260 259 257 261 243 219 232 237 234 239 238 233 230 229 229 228 226 225 223 223 221 216 217 217 217 218 215 214 215 211 201 199 198 186 184 190 186 183 186 191 192 192 197 205 212 205 195 190 183 182 182 177 176 177 175 177 181 183 183 176 164
176 242 247 223 171 149 210 188 156 195 245 239 219 221 253 245 251 276 289 311 311 225 260 289 286 269 263 262 258 247 236 241 247 244 245 243 238 236 235 233 229 226 224 221 220 219 214 215 215 214 215 212 208 209 209 201 197 197 189 187 192 192 189 188 192 193 196 202 204 199 193 192 191 181 178 180 177 177 182 180 177 173 166 161 153 145
209 239 237 176 162 168 200 203 167 174 244 247 217 207 229 234 217 230 282 324 334 333 336 327 303 278 252 246 251 254 243 245 251 248 247 246 242 242 240 235 231 228 227 223 220 218 215 215 216 213 212 210 207 207 207 201 196 198 194 191 195 196 193 192 195 199 203 203 195 189 189 189 187 181 179 183 180 179 180 174 164 156 151 149 146 143
236 236 132 115 149 173 183 211 195 180 215 264 228 208 215 216 216 230 346 20 3 329 327 17 301 279 262 242 251 274 286 252 251 242 242 246 243 239 236 232 229 227 228 227 225 223 218 216 215 211 209 209 208 206 204 200 197 199 197 195 195 193 192 195 198 201 199 191 188 193 192 187 185 181 180 185 184 176 169 163 156 151 148 149 149 146
232 225 186 133 145 164 180 224 219 179 177 258 240 203 201 193 195 224 158 77 277 261 291 67 197 269 285 244 242 256 261 259 253 241 244 247 243 236 234 232 228 225 225 225 224 224 221 218 216 213 211 210 209 204 201 198 197 198 197 195 196 195 196 197 198 195 189 188 194 200 197 190 189 184 178 179 178 169 163 159 155 152 151 152 152 149
181 203 204 168 160 163 181 225 222 170 157 238 241 162 162 171 189 214 177 178 227 251 309 360 143 266 279 253 239 227 241 263 264 257 256 250 245 240 235 231 228 227 226 224 221 220 221 221 219 218 215 212 208 203 200 199 199 201 200 200 203 203 201 199 197 195 191 195 200 198 196 193 193 190 179 171 169 165 163 161 157 155 154 154 154 151
151 176 198 181 179 197 201 215 188 160 165 242 207 125 132 155 161 149 136 178 289 30 292 289 129 256 269 265 290 213 233 261 264 257 255 252 248 243 237 233 230 229 228 226 224 221 221 221 221 220 217 212 206 204 203 201 201 204 205 206 206 203 200 198 196 195 194 200 204 199 197 194 190 188 176 167 166 165 165 164 159 158 157 156 157 154
118 186 196 172 178 210 206 211 173 170 191 197 139 93 72 76 78 76 106 125 39 36 245 245 187 240 269 244 208 30 243 250 258 258 256 257 255 248 241 235 229 227 226 226 225 223 223 222 221 219 215 210 206 204 204 204 203 203 202 201 200 198 198 198 196 196 197 202 205 202 200 194 185 180 173 168 168 168 167 166 161 161 160 158 160 158
333 137 195 175 188 184 146 92 146 177 166 134 106 63 46 31 38 42 58 89 39 268 240 225 200 210 270 263 197 210 230 229 241 262 270 269 260 252 246 237 229 226 224 223 222 220 220 220 218 216 212 208 206 205 204 206 206 202 199 199 198 198 199 199 197 198 200 203 204 202 200 193 183 177 174 171 171 170 169 169 165 163 164 162 163 162
340 49 241 222 177 135 107 77 37 81 129 117 89 80 70 348 9 19 358 51 236 253 242 234 209 196 236 258 233 241 260 247 228 244 264 271 262 254 248 239 231 226 223 221 219 216 215 215 214 212 209 207 206 205 204 205 205 201 200 200 199 199 200 200 200 200 201 201 199 198 194 189 183 180 179 176 174 172 171 172 170 167 169 168 166 164
309 238 276 312 192 166 126 92 37 21 70 104 100 109 112 308 352 345 302 164 235 251 265 279 197 201 238 249 252 261 270 258 238 239 247 256 263 261 253 243 232 225 222 220 217 215 213 213 213 210 207 206 206 207 206 205 204 200 200 200 200 201 200 201 201 200 199 197 194 192 189 187 186 184 182 180 178 176 174 176 177 175 175 173 170 166
263 296 307 49 252 203 170 158 181 219 164 153 142 141 154 170 170 266 258 260 262 263 298 329 159 240 273 261 237 238 247 249 251 258 260 260 263 268 264 250 235 226 223 221 218 216 214 214 214 212 209 207 207 209 208 206 202 200 200 201 202 203 203 202 202 198 196 194 190 188 187 187 188 187 184 183 182 179 176 179 179 178 176 174 173 169
213 287 210 185 210 187 185 191 171 138 155 182 155 142 159 160 173 218 212 220 253 277 303 300 183 204 224 246 233 233 252 257 257 261 265 269 268 267 262 245 231 225 222 221 220 218 217 216 216 214 211 209 208 209 209 207 203 200 200 202 203 204 204 202 199 196 194 191 187 186 188 189 190 189 185 184 184 182 178 179 180 179 177 176 177 174
199 264 235 210 160 165 182 190 128 108 138 233 117 122 179 183 176 214 203 181 193 291 290 233 228 222 213 262 262 256 276 274 264 262 263 267 268 261 247 233 225 223 220 220 220 219 218 217 217 216 213 210 209 209 210 208 204 201 201 203 204 205 205 202 197 196 194 189 186 187 189 190 190 189 187 185 184 183 181 183 183 182 180 180 181 179
173 272 278 16 66 174 181 166 141 144 178 168 129 172 208 178 156 199 268 42 75 270 261 201 248 286 303 280 265 244 256 271 276 269 260 260 260 250 240 229 223 221 220 220 221 220 219 218 218 218 215 212 210 209 210 210 206 203 202 204 204 204 204 203 198 195 193 189 187 188 190 191 191 191 190 188 186 184 183 185 185 186 185 183 184 184
162 253 279 127 163 251 106 106 83 59 125 130 182 202 171 68 103 124 254 349 35 260 267 216 239 267 270 273 299 196 231 255 264 259 259 260 248 240 239 231 224 222 221 221 222 222 222 220 219 218 216 214 213 211 211 211 208 205 205 206 205 203 202 202 199 196 193 191 189 190 191 191 192 192 191 190 190 189 188 188 188 189 190 187 186 186
160 214 291 110 172 270 43 101 73 15 77 125 176 182 124 126 202 121 165 225 197 254 282 260 240 242 213 231 289 176 208 232 245 245 253 254 239 237 238 231 225 221 219 219 220 221 222 221 221 219 217 215 213 212 212 211 210 207 206 208 208 206 204 201 200 196 194 193 192 192 191 191 193 193 193 192 193 194 193 194 193 191 192 191 189 189
156 196 268 337 315 320 42 140 179 214 11 48 96 146 108 135 177 162 165 167 157 232 281 287 251 233 213 206 202 206 207 213 229 234 237 242 241 240 238 231 226 222 220 221 220 222 223 222 221 220 219 216 213 213 212 211 211 208 207 208 208 208 207 204 202 198 196 196 195 194 193 192 194 194 194 194 195 197 197 198 198 196 195 194 192 192
131 205 233 322 340 226 192 202 186 180 176 159 157 172 180 135 114 159 198 136 135 177 241 275 274 254 216 196 192 204 210 208 217 223 228 240 244 244 242 237 232 228 226 225 222 223 224 223 222 220 220 219 216 214 213 212 212 210 209 210 209 208 208 206 203 200 198 197 197 196 195 194 195 196 196 196 197 199 200 199 200 198 197 195 196 198
186 195 172 164 237 207 223 246 207 195 189 180 185 188 184 171 136 160 243 218 141 191 191 222 276 269 219 194 199 203 207 206 212 218 226 240 245 248 246 242 240 236 233 229 225 224 226 225 223 220 219 218 216 215 214 213 212 212 211 211 210 209 209 207 204 202 201 199 198 198 197 197 197 197 197 198 199 200 201 201 201 199 199 199 200 201
160 116 136 179 222 218 240 270 246 222 201 156 198 193 175 176 161 165 219 221 158 239 191 135 282 277 232 187 213 228 226 220 227 227 232 244 250 253 252 248 246 243 237 233 228 226 228 227 224 222 220 218 217 215 214 213 213 213 212 212 211 210 210 208 206 204 202 201 200 199 199 199 199 199 199 200 201 202 203 203 203 202 202 202 204 205
132 121 166 215 306 309 300 311 351 19 102 140 244 177 169 201 197 177 201 180 157 225 189 132 268 269 298 280 260 275 269 263 261 246 236 248 257 261 259 254 250 244 237 233 230 227 228 228 225 223 221 220 218 216 214 214 214 213 212 213 212 212 211 209 208 206 204 203 202 201 201 201 202 202 202 203 204 205 205 205 205 204 204 205 207 209
166 177 159 159 278 319 323 296 284 290 190 193 222 199 195 205 194 170 105 108 231 228 178 179 254 252 292 319 315 321 307 287 271 256 243 252 261 263 262 258 254 248 239 233 230 227 226 227 226 225 224 222 219 217 215 215 215 214 213 213 213 212 212 211 209 208 206 205 204 203 203 203 204 205 205 205 206 207 207 207 208 207 207 209 210 212
170 181 163 181 220 222 219 223 217 196 166 190 212 198 202 203 191 189 191 193 236 229 159 193 248 253 290 323 308 317 331 297 271 264 253 253 259 263 263 260 256 251 243 236 232 228 226 228 229 228 226 224 221 218 216 216 215 215 214 214 214 214 213 212 210 209 208 207 206 206 205 205 206 207 207 208 208 209 209 210 210 210 211 212 214 215
143 191 190 198 215 221 227 226 165 130 149 200 209 194 197 205 197 194 212 219 219 173 185 222 238 257 267 269 281 285 274 262 268 268 257 252 255 260 260 258 257 253 247 239 234 231 229 230 231 230 227 225 223 220 218 217 217 216 216 215 215 215 214 213 211 211 210 209 209 208 208 208 209 209 209 210 210 211 212 212 213 213 214 216 216 217
103 206 205 208 215 224 233 221 156 154 177 198 202 193 198 204 196 194 215 220 180 119 250 242 219 248 262 253 246 254 252 259 260 250 250 253 255 258 258 256 255 251 245 237 234 234 233 232 232 231 228 226 224 222 220 219 218 218 218 217 216 216 215 214 213 212 212 211 211 211 211 211 211 211 211 212 213 213 214 215 215 216 217 218 219 220
133 220 216 213 220 232 237 211 165 176 183 190 197 197 199 199 196 202 216 220 187 181 248 251 196 219 252 254 246 238 221 233 242 242 248 254 258 260 257 253 253 250 242 237 235 237 237 236 234 232 230 226 224 223 221 219 219 219 219 219 218 217 216 215 215 214 214 214 214 214 214 214 213 213 214 214 215 215 216 217 218 218 219 220 221 222
162 242 222 203 226 244 245 216 168 176 164 173 203 203 203 205 205 208 216 222 214 216 243 254 243 241 252 255 248 234 223 234 244 247 248 250 252 253 251 250 253 250 245 242 241 241 241 239 236 233 231 228 225 224 222 220 219 219 219 219 219 218 218 217 217 217 217 217 216 216 216 216 216 216 217 217 217 218 219 219 220 221 221 222 222 223
182 238 51 127 223 255 254 239 170 165 184 217 225 221 218 216 212 214 221 224 222 230 242 250 257 261 256 223 241 245 232 235 244 242 240 242 245 246 245 247 250 250 249 248 245 243 243 239 236 234 233 232 228 225 223 222 220 219 219 219 219 220 219 219 219 219 220 220 219 218 218 218 219 219 220 220 220 220 221 221 222 223 223 223 224 225
161 213 47 96 206 248 254 251 213 168 185 229 242 236 227 218 211 214 219 217 214 224 239 246 254 260 249 196 232 242 221 222 235 236 237 240 240 240 240 244 248 250 253 254 250 247 246 242 238 237 236 233 229 226 224 223 221 219 220 220 221 221 221 221 221 221 222 222 221 221 221 221 222 222 223 223 222 223 223 224 224 225 225 225 226 227
152 176 143 137 215 252 251 218 187 148 158 230 241 237 227 211 203 213 221 223 216 214 227 233 238 248 247 217 225 235 212 219 234 236 238 241 240 239 240 243 248 253 257 261 259 254 250 245 241 239 237 234 231 229 227 224 223 222 222 222 222 223 223 223 224 223 224 224 224 224 224 224 225 225 226 225 225 225 225 226 227 227 227 228 229 229
166 176 191 167 201 249 203 119 124 175 213 233 244 238 221 205 204 213 220 224 219 212 223 233 239 249 251 228 227 238 231 231 240 243 245 246 243 242 245 248 254 258 260 260 258 253 249 246 242 240 240 239 236 233 230 227 227 226 225 224 224 224 224 225 225 225 225 226 226 226 227 227 228 228 228 228 227 227 228 229 229 229 230 230 230 231
175 181 188 166 180 222 139 118 173 212 221 248 334 356 224 200 199 212 225 230 224 217 226 239 248 252 251 245 245 248 246 245 248 250 249 247 245 247 251 256 259 260 258 256 254 253 251 248 246 245 244 242 238 234 232 231 229 228 227 227 227 226 226 227 227 227 228 228 229 229 229 230 231 231 230 230 229 230 231 231 231 231 232 232 233 233
175 182 169 157 185 180 132 183 218 237 286 286 301 356 52 129 158 199 234 244 233 221 223 233 243 248 251 254 255 255 256 258 259 256 251 249 250 250 251 254 258 259 259 258 258 259 257 253 250 249 247 243 238 236 236 235 234 232 231 231 231 231 232 232 232 233 234 235 234 234 233 234 234 233 232 232 232 232 233 233 234 234 234 235 235 235
160 163 165 186 195 185 196 221 238 325 304 275 253 193 167 156 155 173 223 250 236 219 218 226 240 248 250 253 257 259 263 272 275 264 255 251 250 251 252 256 258 259 258 252 245 244 245 246 247 245 243 241 238 238 238 237 236 235 234 234 235 237 238 238 240 242 244 244 242 240 239 238 237 236 235 235 234 235 236 236 237 237 237 237 236 236
169 167 175 196 205 185 210 237 240 262 265 261 238 183 177 180 169 160 204 256 239 208 208 215 234 243 242 249 255 255 259 277 277 264 251 243 244 247 248 243 231 208 189 187 195 203 208 219 227 231 235 236 238 240 240 239 237 236 237 238 239 241 242 243 245 247 248 248 246 244 242 242 241 241 240 239 239 239 240 240 240 241 241 240 240 240
197 179 171 187 200 184 206 230 216 226 249 243 183 178 172 162 141 117 162 260 244 197 201 207 224 237 242 248 239 195 168 244 261 263 245 231 226 219 206 192 175 165 167 173 176 179 181 187 195 204 212 215 218 222 224 228 231 231 234 237 238 240 241 242 243 244 246 247 247 247 247 248 248 247 246 245 246 245 245 245 244 245 244 244 244 243
187 180 177 197 207 205 214 226 224 240 250 206 176 197 175 150 134 111 274 254 235 195 196 202 223 245 253 242 206 167 189 230 257 281 227 197 187 174 165 165 165 165 167 167 169 174 177 177 176 178 179 178 182 189 194 202 211 218 225 230 233 236 239 242 246 248 250 251 251 252 253 253 253 253 252 252 252 251 251 250 249 249 248 248 247 245
179 177 182 205 216 216 218 227 246 251 234 197 175 171 154 136 138 180 234 224 187 184 195 202 229 256 251 217 192 189 220 235 255 242 182 173 168 160 159 166 166 162 165 168 168 167 165 163 160 161 163 166 174 184 193 204 215 220 225 228 231 236 242 248 252 254 255 256 255 256 257 256 257 258 257 258 258 257 256 255 254 254 253 252 250 249
167 157 184 206 214 218 221 223 241 258 228 151 146 157 151 138 191 220 191 128 148 171 173 175 214 246 221 195 187 191 201 194 191 181 171 168 169 167 167 167 164 163 167 167 165 163 163 164 164 168 177 185 193 201 206 212 217 218 222 226 229 236 244 249 252 254 255 256 256 257 259 259 260 261 260 260 260 259 259 259 258 258 257 256 254 252
162 155 185 206 190 186 225 207 212 262 185 138 130 138 179 190 194 167 141 123 143 155 145 148 170 173 173 171 165 162 156 148 154 166 167 170 175 170 166 166 163 162 161 158 159 160 160 163 167 171 180 185 189 193 197 200 205 208 214 218 217 224 233 236 241 246 248 250 252 254 257 259 261 262 262 262 261 261 262 262 261 261 260 260 259 257
174 171 184 210 183 158 198 207 211 275 170 153 143 154 206 191 157 128 135 147 147 142 140 141 142 157 167 164 157 152 150 148 152 160 163 165 166 162 157 154 152 150 148 149 151 148 148 156 161 160 163 167 169 172 174 177 183 187 184 169 162 185 202 209 218 227 231 236 242 247 252 257 259 261 262 262 263 263 264 264 263 263 263 262 262 261
205 183 154 180 188 163 190 212 231 353 172 172 174 302 178 177 169 141 140 148 147 144 136 129 134 148 158 162 157 149 145 144 146 148 152 154 153 152 148 146 147 148 146 146 146 143 144 148 150 150 151 149 147 147 146 144 142 140 138 139 152 171 184 193 208 218 224 232 239 244 250 254 256 258 260 261 263 263 263 264 264 264 264 264 263 263
223 150 119 128 190 223 270 193 170 289 191 188 206 203 163 170 177 168 153 147 144 136 125 121 125 133 144 157 158 149 144 144 140 137 142 145 145 148 148 146 147 144 141 143 143 140 139 139 138 138 137 135 135 134 133 132 129 129 138 150 166 183 201 214 223 229 231 237 242 244 248 251 253 256 258 259 261 262 263 264 265 265 265 265 264 264
278 162 138 119 170 189 225 186 168 210 215 200 203 197 175 172 173 168 161 156 147 135 126 122 116 121 132 145 155 152 149 150 149 147 149 149 148 149 149 147 144 139 137 137 135 132 132 130 126 123 121 125 130 129 133 142 143 146 164 186 206 218 227 233 239 243 243 245 247 247 250 255 257 259 261 261 262 263 263 263 264 264 264 264 264 265
197 163 160 196 190 183 223 233 220 255 232 216 213 202 185 178 172 162 158 158 151 140 133 127 120 123 129 133 146 154 151 153 158 159 157 157 156 151 147 146 143 140 136 132 128 127 124 117 115 114 113 121 131 132 142 158 165 180 202 221 231 232 238 244 245 248 249 250 252 254 258 263 264 266 268 268 268 269 268 267 268 267 268 269 269 270
137 153 171 176 153 165 280 247 226 308 259 230 222 207 190 183 176 164 156 158 157 149 141 134 126 126 131 135 144 154 156 156 159 162 160 158 154 148 144 142 140 137 135 133 129 127 123 118 120 123 124 135 151 157 170 183 197 211 215 223 229 231 236 238 237 241 245 249 255 261 264 268 271 272 273 272 272 273 273 272 272 272 273 274 274 273
135 163 174 123 148 212 236 188 170 158 230 220 216 209 195 185 182 176 168 166 163 157 153 149 140 135 139 144 148 156 162 160 158 161 161 154 149 147 145 143 142 141 140 140 138 138 138 139 144 152 160 171 180 189 201 208 214 219 222 227 230 232 235 237 239 243 247 251 257 262 266 271 273 274 275 275 275 275 275 274 273 273 274 274 273 272
173 176 173 163 183 217 199 177 176 176 183 207 209 208 198 188 188 188 183 179 173 165 161 160 156 151 153 157 157 159 165 163 159 161 161 155 152 152 150 148 150 150 148 149 149 150 156 161 167 177 187 194 202 211 219 224 227 230 234 237 240 242 244 246 248 251 254 257 260 262 265 269 271 273 275 277 278 278 278 278 277 276 277 277 276 275